Time,TemperatureF,DewpointF,PressureIn,WindDirection,WindDirectionDegrees,WindSpeedMPH,WindSpeedGustMPH,Humidity,HourlyPrecipIn,Conditions,Clouds,dailyrainin,SolarRadiationWatts/m^2,SoftwareType,DateUTC
2013-07-26 00:05:00,69.7,64.6,29.91,NNW,336,0.0,0.0,84,0.00,,,0.00,0,Wunderground v.1.15,2013-07-26 07:05:00,
2013-07-26 00:11:00,69.7,64.6,29.91,NNW,336,0.0,0.0,84,0.00,,,0.00,0,Wunderground v.1.15,2013-07-26 07:11:00,
2013-07-26 00:17:00,69.6,64.5,29.91,NNW,336,0.0,0.0,84,0.00,,,0.00,0,Wunderground v.1.15,2013-07-26 07:17:00,
2013-07-26 00:23:00,69.5,64.5,29.91,NNW,336,0.0,0.0,84,0.00,,,0.00,0,Wunderground v.1.15,2013-07-26 07:23:00,
2013-07-26 00:28:00,69.4,64.4,29.91,NNW,336,0.0,0.0,84,0.00,,,0.00,0,Wunderground v.1.15,2013-07-26 07:28:00,
2013-07-26 00:34:00,69.4,64.7,29.91,NNW,336,0.0,0.0,85,0.00,,,0.00,0,Wunderground v.1.15,2013-07-26 07:34:00,
2013-07-26 00:40:00,69.3,64.6,29.90,NNW,336,0.0,0.0,85,0.00,,,0.00,0,Wunderground v.1.15,2013-07-26 07:40:00,
2013-07-26 00:45:00,69.2,64.5,29.90,NNW,336,0.0,0.0,85,0.00,,,0.00,0,Wunderground v.1.15,2013-07-26 07:45:00,
2013-07-26 00:51:00,69.2,64.5,29.90,NNW,336,0.0,0.0,85,0.00,,,0.00,0,Wunderground v.1.15,2013-07-26 07:51:00,
2013-07-26 00:57:00,69.1,64.4,29.90,NNW,336,0.0,0.0,85,0.00,,,0.00,0,Wunderground v.1.15,2013-07-26 07:57:00,
2013-07-26 01:02:00,69.0,64.3,29.89,NNW,336,0.0,0.0,85,0.00,,,0.00,0,Wunderground v.1.15,2013-07-26 08:02:00,
2013-07-26 01:08:00,69.0,64.3,29.89,NNW,336,0.0,0.0,85,0.00,,,0.00,0,Wunderground v.1.15,2013-07-26 08:08:00,
2013-07-26 01:13:00,68.9,64.5,29.89,NNW,336,0.0,0.0,86,0.00,,,0.00,0,Wunderground v.1.15,2013-07-26 08:13:00,
2013-07-26 01:19:00,68.9,64.5,29.89,NNW,336,0.0,0.0,86,0.00,,,0.00,0,Wunderground v.1.15,2013-07-26 08:19:00,
2013-07-26 01:24:00,68.9,64.5,29.89,NNW,336,0.0,0.0,86,0.00,,,0.00,0,Wunderground v.1.15,2013-07-26 08:24:00,
2013-07-26 01:29:00,68.8,64.4,29.89,NNW,336,0.0,0.0,86,0.00,,,0.00,0,Wunderground v.1.15,2013-07-26 08:29:00,
2013-07-26 01:34:00,68.7,64.3,29.89,NNW,336,0.0,0.0,86,0.00,,,0.00,0,Wunderground v.1.15,2013-07-26 08:34:00,
2013-07-26 01:40:00,68.5,64.1,29.89,NNW,336,0.0,0.0,86,0.00,,,0.00,0,Wunderground v.1.15,2013-07-26 08:40:00,
2013-07-26 01:45:00,68.5,64.1,29.88,NNW,336,0.0,0.0,86,0.00,,,0.00,0,Wunderground v.1.15,2013-07-26 08:45:00,
2013-07-26 01:51:00,68.4,64.0,29.88,NNW,336,0.0,0.0,86,0.00,,,0.00,0,Wunderground v.1.15,2013-07-26 08:51:00,
2013-07-26 01:56:00,68.4,64.0,29.88,NNW,336,0.0,0.0,86,0.00,,,0.00,0,Wunderground v.1.15,2013-07-26 08:56:00,
2013-07-26 02:01:00,68.3,63.9,29.88,NNW,336,0.0,0.0,86,0.00,,,0.00,0,Wunderground v.1.15,2013-07-26 09:01:00,
2013-07-26 02:06:00,68.2,63.5,29.89,NNW,336,0.0,0.0,85,0.00,,,0.00,0,Wunderground v.1.15,2013-07-26 09:06:00,
2013-07-26 02:11:00,68.1,63.4,29.89,NNW,336,0.0,0.0,85,0.00,,,0.00,0,Wunderground v.1.15,2013-07-26 09:11:00,
2013-07-26 02:16:00,68.0,63.7,29.89,NNW,336,0.0,0.0,86,0.00,,,0.00,0,Wunderground v.1.15,2013-07-26 09:16:00,
2013-07-26 02:21:00,67.9,63.6,29.89,NNW,336,0.0,0.0,86,0.00,,,0.00,0,Wunderground v.1.15,2013-07-26 09:21:00,
2013-07-26 02:26:00,67.9,63.6,29.89,NNW,336,0.0,0.0,86,0.00,,,0.00,0,Wunderground v.1.15,2013-07-26 09:26:00,
2013-07-26 02:31:00,67.8,63.5,29.90,NNW,336,0.0,0.0,86,0.00,,,0.00,0,Wunderground v.1.15,2013-07-26 09:31:00,
2013-07-26 02:36:00,67.7,63.4,29.90,NNW,336,0.0,0.0,86,0.00,,,0.00,0,Wunderground v.1.15,2013-07-26 09:36:00,
2013-07-26 02:41:00,67.7,63.7,29.90,NNW,336,0.0,0.0,87,0.00,,,0.00,0,Wunderground v.1.15,2013-07-26 09:41:00,
2013-07-26 02:47:00,67.7,63.7,29.91,NNW,336,0.0,0.0,87,0.00,,,0.00,0,Wunderground v.1.15,2013-07-26 09:47:00,
2013-07-26 02:52:00,67.7,63.7,29.91,NNW,336,0.0,0.0,87,0.00,,,0.00,0,Wunderground v.1.15,2013-07-26 09:52:00,
2013-07-26 02:57:00,67.7,63.7,29.91,NNW,336,0.0,0.0,87,0.00,,,0.00,0,Wunderground v.1.15,2013-07-26 09:57:00,
2013-07-26 03:02:00,67.7,64.0,29.91,NNW,336,0.0,0.0,88,0.00,,,0.00,0,Wunderground v.1.15,2013-07-26 10:02:00,
2013-07-26 03:07:00,67.7,64.0,29.91,NNW,336,0.0,0.0,88,0.00,,,0.00,0,Wunderground v.1.15,2013-07-26 10:07:00,
2013-07-26 03:12:00,67.7,64.0,29.91,NNW,336,0.0,0.0,88,0.00,,,0.00,0,Wunderground v.1.15,2013-07-26 10:12:00,
2013-07-26 03:17:00,67.7,64.0,29.91,NNW,336,0.0,0.0,88,0.00,,,0.00,0,Wunderground v.1.15,2013-07-26 10:17:00,
2013-07-26 03:22:00,67.8,64.1,29.91,NNW,336,0.0,0.0,88,0.00,,,0.00,0,Wunderground v.1.15,2013-07-26 10:22:00,
2013-07-26 03:27:00,67.8,64.1,29.91,NNW,336,0.0,0.0,88,0.00,,,0.00,0,Wunderground v.1.15,2013-07-26 10:27:00,
2013-07-26 03:32:00,67.8,64.1,29.91,NNW,336,0.0,0.0,88,0.00,,,0.00,0,Wunderground v.1.15,2013-07-26 10:32:00,
2013-07-26 03:37:00,67.7,64.0,29.92,NNW,336,0.0,0.0,88,0.00,,,0.00,0,Wunderground v.1.15,2013-07-26 10:37:00,
2013-07-26 03:42:00,67.7,64.0,29.92,NNW,336,0.0,0.0,88,0.00,,,0.00,0,Wunderground v.1.15,2013-07-26 10:42:00,
2013-07-26 03:47:00,67.6,63.9,29.92,NNW,336,0.0,0.0,88,0.00,,,0.00,0,Wunderground v.1.15,2013-07-26 10:47:00,
2013-07-26 03:52:00,67.5,63.8,29.92,NNW,336,0.0,0.0,88,0.00,,,0.00,0,Wunderground v.1.15,2013-07-26 10:52:00,
2013-07-26 03:57:00,67.4,63.7,29.92,NNW,336,0.0,0.0,88,0.00,,,0.00,0,Wunderground v.1.15,2013-07-26 10:57:00,
2013-07-26 04:02:00,67.3,63.6,29.92,NNW,336,0.0,0.0,88,0.00,,,0.00,0,Wunderground v.1.15,2013-07-26 11:02:00,
2013-07-26 04:07:00,67.2,63.5,29.92,NNW,336,0.0,0.0,88,0.00,,,0.00,0,Wunderground v.1.15,2013-07-26 11:07:00,
2013-07-26 04:12:00,67.2,63.5,29.92,NNW,336,0.0,0.0,88,0.00,,,0.00,0,Wunderground v.1.15,2013-07-26 11:12:00,
2013-07-26 04:17:00,67.1,63.4,29.93,NNW,336,0.0,0.0,88,0.00,,,0.00,0,Wunderground v.1.15,2013-07-26 11:17:00,
2013-07-26 04:22:00,67.1,63.7,29.93,NNW,336,0.0,0.0,89,0.00,,,0.00,0,Wunderground v.1.15,2013-07-26 11:22:00,
2013-07-26 04:27:00,67.0,63.6,29.93,NNW,336,0.0,0.0,89,0.00,,,0.00,0,Wunderground v.1.15,2013-07-26 11:27:00,
2013-07-26 04:32:00,66.9,63.6,29.93,NNW,336,0.0,0.0,89,0.00,,,0.00,0,Wunderground v.1.15,2013-07-26 11:32:00,
2013-07-26 04:37:00,66.8,63.5,29.93,NNW,336,0.0,0.0,89,0.00,,,0.00,0,Wunderground v.1.15,2013-07-26 11:37:00,
2013-07-26 04:42:00,66.7,63.4,29.93,NNW,336,0.0,0.0,89,0.00,,,0.00,0,Wunderground v.1.15,2013-07-26 11:42:00,
2013-07-26 04:47:00,66.7,63.4,29.94,NNW,336,0.0,0.0,89,0.00,,,0.00,0,Wunderground v.1.15,2013-07-26 11:47:00,
2013-07-26 04:52:00,66.7,63.4,29.94,NNW,336,0.0,0.0,89,0.00,,,0.00,0,Wunderground v.1.15,2013-07-26 11:52:00,
2013-07-26 04:57:00,66.7,63.4,29.94,NNW,336,0.0,0.0,89,0.00,,,0.00,0,Wunderground v.1.15,2013-07-26 11:57:00,
2013-07-26 05:02:00,66.7,63.4,29.94,NNW,336,0.0,0.0,89,0.00,,,0.00,0,Wunderground v.1.15,2013-07-26 12:02:00,
2013-07-26 05:07:00,66.7,63.7,29.95,NNW,336,0.0,0.0,90,0.00,,,0.00,0,Wunderground v.1.15,2013-07-26 12:07:00,
2013-07-26 05:12:00,66.7,63.7,29.95,NNW,336,0.0,0.0,90,0.00,,,0.00,0,Wunderground v.1.15,2013-07-26 12:12:00,
2013-07-26 05:17:00,66.7,63.7,29.95,NNW,336,0.0,0.0,90,0.00,,,0.00,0,Wunderground v.1.15,2013-07-26 12:17:00,
2013-07-26 05:22:00,66.6,63.6,29.96,NNW,336,0.0,0.0,90,0.00,,,0.00,0,Wunderground v.1.15,2013-07-26 12:22:00,
2013-07-26 05:27:00,66.6,63.6,29.96,NNW,336,0.0,0.0,90,0.00,,,0.00,0,Wunderground v.1.15,2013-07-26 12:27:00,
2013-07-26 05:33:00,66.6,63.6,29.96,NNW,336,0.0,0.0,90,0.00,,,0.00,0,Wunderground v.1.15,2013-07-26 12:33:00,
2013-07-26 05:38:00,66.7,63.7,29.96,NNW,336,0.0,0.0,90,0.00,,,0.00,11,Wunderground v.1.15,2013-07-26 12:38:00,
2013-07-26 05:43:00,66.7,63.7,29.96,NNW,336,0.0,0.0,90,0.00,,,0.00,18,Wunderground v.1.15,2013-07-26 12:43:00,
2013-07-26 05:49:00,66.7,64.0,29.96,NNW,336,0.0,0.0,91,0.00,,,0.00,25,Wunderground v.1.15,2013-07-26 12:49:00,
2013-07-26 05:54:00,66.7,64.0,29.97,NNW,336,0.0,0.0,91,0.00,,,0.00,30,Wunderground v.1.15,2013-07-26 12:54:00,
2013-07-26 05:59:00,66.7,64.0,29.97,NNW,336,0.0,0.0,91,0.00,,,0.00,37,Wunderground v.1.15,2013-07-26 12:59:00,
2013-07-26 06:04:00,66.8,64.1,29.97,NNW,336,0.0,0.0,91,0.00,,,0.00,44,Wunderground v.1.15,2013-07-26 13:04:00,
2013-07-26 06:09:00,66.9,64.2,29.97,NNW,336,0.0,0.0,91,0.00,,,0.00,49,Wunderground v.1.15,2013-07-26 13:09:00,
2013-07-26 06:14:00,67.1,64.7,29.97,NNW,336,0.0,0.0,92,0.00,,,0.00,54,Wunderground v.1.15,2013-07-26 13:14:00,
2013-07-26 06:19:00,67.2,64.8,29.97,NNW,336,0.0,0.0,92,0.00,,,0.00,62,Wunderground v.1.15,2013-07-26 13:19:00,
2013-07-26 06:24:00,67.3,64.9,29.97,NNW,336,0.0,0.0,92,0.00,,,0.00,69,Wunderground v.1.15,2013-07-26 13:24:00,
2013-07-26 06:29:00,67.4,65.0,29.97,NNW,336,0.0,1.0,92,0.00,,,0.00,76,Wunderground v.1.15,2013-07-26 13:29:00,
2013-07-26 06:34:00,67.5,65.1,29.97,NNW,336,0.0,0.0,92,0.00,,,0.00,86,Wunderground v.1.15,2013-07-26 13:34:00,
2013-07-26 06:39:00,67.7,65.3,29.97,NNW,336,0.0,0.0,92,0.00,,,0.00,91,Wunderground v.1.15,2013-07-26 13:39:00,
2013-07-26 06:44:00,67.8,65.4,29.97,NNW,336,0.0,0.0,92,0.00,,,0.00,100,Wunderground v.1.15,2013-07-26 13:44:00,
2013-07-26 06:49:00,67.9,65.5,29.97,NNW,336,0.0,0.0,92,0.00,,,0.00,105,Wunderground v.1.15,2013-07-26 13:49:00,
2013-07-26 06:54:00,68.0,65.6,29.98,NNW,336,0.0,0.0,92,0.00,,,0.00,163,Wunderground v.1.15,2013-07-26 13:54:00,
2013-07-26 06:59:00,68.3,65.9,29.98,NNW,336,0.0,0.0,92,0.00,,,0.00,221,Wunderground v.1.15,2013-07-26 13:59:00,
2013-07-26 07:04:00,68.7,66.3,29.98,NNW,336,0.0,0.0,92,0.00,,,0.00,258,Wunderground v.1.15,2013-07-26 14:04:00,
2013-07-26 07:09:00,69.2,66.8,29.98,NNW,336,0.0,0.0,92,0.00,,,0.00,276,Wunderground v.1.15,2013-07-26 14:09:00,
2013-07-26 07:14:00,69.7,67.3,29.97,NNW,336,0.0,0.0,92,0.00,,,0.00,285,Wunderground v.1.15,2013-07-26 14:14:00,
2013-07-26 07:19:00,70.1,67.0,29.97,NNW,336,0.0,1.0,90,0.00,,,0.00,294,Wunderground v.1.15,2013-07-26 14:19:00,
2013-07-26 07:24:00,70.6,67.5,29.97,NNW,336,0.0,1.0,90,0.00,,,0.00,313,Wunderground v.1.15,2013-07-26 14:24:00,
2013-07-26 07:29:00,71.3,67.6,29.97,NNW,336,0.0,1.0,88,0.00,,,0.00,306,Wunderground v.1.15,2013-07-26 14:29:00,
2013-07-26 07:34:00,71.9,67.5,29.97,NNW,336,0.0,0.0,86,0.00,,,0.00,323,Wunderground v.1.15,2013-07-26 14:34:00,
2013-07-26 07:39:00,72.5,67.7,29.97,NNW,336,0.0,3.0,85,0.00,,,0.00,343,Wunderground v.1.15,2013-07-26 14:39:00,
2013-07-26 07:44:00,73.1,67.6,29.98,NNW,336,0.0,0.0,83,0.00,,,0.00,338,Wunderground v.1.15,2013-07-26 14:44:00,
2013-07-26 07:51:00,73.9,67.3,29.98,NNW,336,0.0,0.0,80,0.00,,,0.00,392,Wunderground v.1.15,2013-07-26 14:51:00,
2013-07-26 07:56:00,74.6,67.7,29.98,NNW,336,0.0,0.0,79,0.00,,,0.00,410,Wunderground v.1.15,2013-07-26 14:56:00,
2013-07-26 08:01:00,75.2,67.5,29.98,NNW,336,0.0,4.0,77,0.00,,,0.00,404,Wunderground v.1.15,2013-07-26 15:01:00,
2013-07-26 08:06:00,75.9,67.4,29.98,NNW,336,0.0,4.0,75,0.00,,,0.00,482,Wunderground v.1.15,2013-07-26 15:06:00,
2013-07-26 08:11:00,76.4,67.5,29.98,NNW,336,0.0,0.0,74,0.00,,,0.00,207,Wunderground v.1.15,2013-07-26 15:11:00,
2013-07-26 08:16:00,76.6,67.3,29.98,NNW,336,0.0,1.0,73,0.00,,,0.00,181,Wunderground v.1.15,2013-07-26 15:16:00,
2013-07-26 08:22:00,76.7,67.0,29.98,NNW,336,0.0,0.0,72,0.00,,,0.00,206,Wunderground v.1.15,2013-07-26 15:22:00,
2013-07-26 08:27:00,76.7,67.0,29.98,NNW,336,1.0,4.0,72,0.00,,,0.00,206,Wunderground v.1.15,2013-07-26 15:27:00,
2013-07-26 08:32:00,76.7,67.0,29.99,NNW,336,0.0,4.0,72,0.00,,,0.00,195,Wunderground v.1.15,2013-07-26 15:32:00,
2013-07-26 08:37:00,76.6,66.5,29.99,NNW,336,0.0,6.0,71,0.00,,,0.00,202,Wunderground v.1.15,2013-07-26 15:37:00,
2013-07-26 08:42:00,76.6,66.5,29.98,NNW,336,2.0,4.0,71,0.00,,,0.00,246,Wunderground v.1.15,2013-07-26 15:42:00,
2013-07-26 08:47:00,76.7,66.6,29.99,NNW,336,2.0,6.0,71,0.00,,,0.00,234,Wunderground v.1.15,2013-07-26 15:47:00,
2013-07-26 08:52:00,76.6,66.5,29.98,NNW,336,0.0,9.0,71,0.00,,,0.00,290,Wunderground v.1.15,2013-07-26 15:52:00,
2013-07-26 08:57:00,76.8,67.1,29.98,NNW,336,0.0,9.0,72,0.00,,,0.00,564,Wunderground v.1.15,2013-07-26 15:57:00,
2013-07-26 09:02:00,77.4,68.1,29.98,NNW,336,0.0,2.0,73,0.00,,,0.00,640,Wunderground v.1.15,2013-07-26 16:02:00,
2013-07-26 09:07:00,78.0,67.8,29.98,NNW,336,0.0,6.0,71,0.00,,,0.00,684,Wunderground v.1.15,2013-07-26 16:07:00,
2013-07-26 09:12:00,78.7,67.7,29.98,NNW,336,0.0,4.0,69,0.00,,,0.00,717,Wunderground v.1.15,2013-07-26 16:12:00,
2013-07-26 09:17:00,79.4,68.3,29.98,NNW,336,0.0,6.0,69,0.00,,,0.00,719,Wunderground v.1.15,2013-07-26 16:17:00,
2013-07-26 09:22:00,80.1,68.6,29.97,NNW,336,0.0,4.0,68,0.00,,,0.00,786,Wunderground v.1.15,2013-07-26 16:22:00,
2013-07-26 09:27:00,80.6,68.2,29.97,NNW,336,0.0,4.0,66,0.00,,,0.00,786,Wunderground v.1.15,2013-07-26 16:27:00,
2013-07-26 09:32:00,81.1,67.8,29.97,NNW,336,0.0,0.0,64,0.00,,,0.00,756,Wunderground v.1.15,2013-07-26 16:32:00,
2013-07-26 09:37:00,81.5,67.2,29.97,NNW,336,1.0,3.0,62,0.00,,,0.00,833,Wunderground v.1.15,2013-07-26 16:37:00,
2013-07-26 09:42:00,82.0,66.7,29.97,NNW,336,0.0,2.0,60,0.00,,,0.00,844,Wunderground v.1.15,2013-07-26 16:42:00,
2013-07-26 09:47:00,82.4,65.6,29.97,NNW,336,0.0,2.0,57,0.00,,,0.00,868,Wunderground v.1.15,2013-07-26 16:47:00,
2013-07-26 09:52:00,82.8,65.0,29.97,NNW,336,0.0,0.0,55,0.00,,,0.00,628,Wunderground v.1.15,2013-07-26 16:52:00,
2013-07-26 09:57:00,83.1,64.7,29.97,NNW,336,0.0,0.0,54,0.00,,,0.00,642,Wunderground v.1.15,2013-07-26 16:57:00,
2013-07-26 10:02:00,83.4,65.0,29.97,NNW,336,0.0,0.0,54,0.00,,,0.00,731,Wunderground v.1.15,2013-07-26 17:02:00,
2013-07-26 10:07:00,83.6,65.2,29.96,NNW,336,0.0,0.0,54,0.00,,,0.00,334,Wunderground v.1.15,2013-07-26 17:07:00,
2013-07-26 10:12:00,83.8,65.4,29.96,NNW,336,0.0,0.0,54,0.00,,,0.00,780,Wunderground v.1.15,2013-07-26 17:12:00,
2013-07-26 10:17:00,84.1,66.7,29.96,NNW,336,0.0,3.0,56,0.00,,,0.00,788,Wunderground v.1.15,2013-07-26 17:17:00,
2013-07-26 10:22:00,84.3,65.3,29.96,NNW,336,0.0,1.0,53,0.00,,,0.00,844,Wunderground v.1.15,2013-07-26 17:22:00,
2013-07-26 10:27:00,84.5,67.1,29.96,NNW,336,0.0,4.0,56,0.00,,,0.00,874,Wunderground v.1.15,2013-07-26 17:27:00,
2013-07-26 10:32:00,84.7,67.3,29.96,NNW,336,0.0,0.0,56,0.00,,,0.00,853,Wunderground v.1.15,2013-07-26 17:32:00,
2013-07-26 10:37:00,85.0,68.1,29.96,NNW,336,0.0,2.0,57,0.00,,,0.00,838,Wunderground v.1.15,2013-07-26 17:37:00,
2013-07-26 10:42:00,85.4,67.4,29.96,NNW,336,5.0,6.0,55,0.00,,,0.00,900,Wunderground v.1.15,2013-07-26 17:42:00,
2013-07-26 10:48:00,85.5,66.4,29.96,NNW,336,3.0,8.0,53,0.00,,,0.00,986,Wunderground v.1.15,2013-07-26 17:48:00,
2013-07-26 10:53:00,85.6,66.0,29.95,NNW,336,0.0,2.0,52,0.00,,,0.00,1005,Wunderground v.1.15,2013-07-26 17:53:00,
2013-07-26 10:58:00,85.9,68.9,29.95,NNW,336,1.0,5.0,57,0.00,,,0.00,1048,Wunderground v.1.15,2013-07-26 17:58:00,
2013-07-26 11:03:00,86.2,67.1,29.95,NNW,336,3.0,4.0,53,0.00,,,0.00,1069,Wunderground v.1.15,2013-07-26 18:03:00,
2013-07-26 11:08:00,86.4,65.0,29.94,NNW,336,0.0,4.0,49,0.00,,,0.00,1016,Wunderground v.1.15,2013-07-26 18:08:00,
2013-07-26 11:13:00,86.7,65.8,29.94,NNW,336,0.0,2.0,50,0.00,,,0.00,1007,Wunderground v.1.15,2013-07-26 18:13:00,
2013-07-26 11:18:00,86.9,65.4,29.94,NNW,336,0.0,5.0,49,0.00,,,0.00,1032,Wunderground v.1.15,2013-07-26 18:18:00,
2013-07-26 11:23:00,86.8,64.8,29.94,NNW,336,0.0,4.0,48,0.00,,,0.00,1048,Wunderground v.1.15,2013-07-26 18:23:00,
2013-07-26 11:28:00,86.9,65.4,29.94,NNW,336,1.0,6.0,49,0.00,,,0.00,1025,Wunderground v.1.15,2013-07-26 18:28:00,
2013-07-26 11:33:00,87.1,65.0,29.94,NNW,336,0.0,1.0,48,0.00,,,0.00,1009,Wunderground v.1.15,2013-07-26 18:33:00,
2013-07-26 11:38:00,87.1,65.6,29.94,NNW,336,3.0,9.0,49,0.00,,,0.00,990,Wunderground v.1.15,2013-07-26 18:38:00,
2013-07-26 11:43:00,87.0,66.1,29.94,NNW,336,4.0,6.0,50,0.00,,,0.00,986,Wunderground v.1.15,2013-07-26 18:43:00,
2013-07-26 11:48:00,86.9,64.2,29.93,NNW,336,0.0,6.0,47,0.00,,,0.00,831,Wunderground v.1.15,2013-07-26 18:48:00,
2013-07-26 11:53:00,87.0,64.9,29.93,NNW,336,0.0,2.0,48,0.00,,,0.00,773,Wunderground v.1.15,2013-07-26 18:53:00,
2013-07-26 11:58:00,87.1,65.6,29.93,NNW,336,0.0,2.0,49,0.00,,,0.00,886,Wunderground v.1.15,2013-07-26 18:58:00,
2013-07-26 12:03:00,87.1,64.4,29.93,NNW,336,1.0,5.0,47,0.00,,,0.00,969,Wunderground v.1.15,2013-07-26 19:03:00,
2013-07-26 12:08:00,87.3,64.0,29.93,NNW,336,0.0,5.0,46,0.00,,,0.00,976,Wunderground v.1.15,2013-07-26 19:08:00,
2013-07-26 12:13:00,87.5,63.5,29.92,NNW,336,0.0,5.0,45,0.00,,,0.00,991,Wunderground v.1.15,2013-07-26 19:13:00,
2013-07-26 12:18:00,87.7,65.6,29.92,NNW,336,0.0,5.0,48,0.00,,,0.00,997,Wunderground v.1.15,2013-07-26 19:18:00,
2013-07-26 12:23:00,88.1,64.7,29.92,NNW,336,0.0,6.0,46,0.00,,,0.00,997,Wunderground v.1.15,2013-07-26 19:23:00,
2013-07-26 12:28:00,88.1,63.4,29.92,NNW,336,0.0,6.0,44,0.00,,,0.00,1000,Wunderground v.1.15,2013-07-26 19:28:00,
2013-07-26 12:33:00,88.1,63.4,29.92,NNW,336,0.0,4.0,44,0.00,,,0.00,1004,Wunderground v.1.15,2013-07-26 19:33:00,
2013-07-26 12:38:00,88.2,62.9,29.92,NNW,336,0.0,4.0,43,0.00,,,0.00,1000,Wunderground v.1.15,2013-07-26 19:38:00,
2013-07-26 12:43:00,88.2,62.9,29.92,NNW,336,0.0,0.0,43,0.00,,,0.00,1005,Wunderground v.1.15,2013-07-26 19:43:00,
2013-07-26 12:48:00,88.4,63.7,29.91,NNW,336,9.0,9.0,44,0.00,,,0.00,1018,Wunderground v.1.15,2013-07-26 19:48:00,
2013-07-26 12:53:00,88.7,63.3,29.92,NNW,336,0.0,5.0,43,0.00,,,0.00,1028,Wunderground v.1.15,2013-07-26 19:53:00,
2013-07-26 12:58:00,89.2,64.4,29.91,NNW,336,3.0,5.0,44,0.00,,,0.00,1035,Wunderground v.1.15,2013-07-26 19:58:00,
2013-07-26 13:03:00,89.4,64.0,29.91,NNW,336,0.0,4.0,43,0.00,,,0.00,1025,Wunderground v.1.15,2013-07-26 20:03:00,
2013-07-26 13:08:00,89.5,62.7,29.91,NNW,336,0.0,4.0,41,0.00,,,0.00,1046,Wunderground v.1.15,2013-07-26 20:08:00,
2013-07-26 13:09:00,89.6,64.8,29.91,NNW,336,0.0,4.0,44,0.00,,,0.00,1049,Wunderground v.1.15,2013-07-26 20:09:00,
2013-07-26 13:14:00,89.9,63.7,29.90,NNW,336,0.0,0.0,42,0.00,,,0.00,1095,Wunderground v.1.15,2013-07-26 20:14:00,
2013-07-26 13:19:00,90.0,63.1,29.90,NNW,336,1.0,4.0,41,0.00,,,0.00,1109,Wunderground v.1.15,2013-07-26 20:19:00,
2013-07-26 13:24:00,90.1,63.9,29.90,NNW,336,1.0,4.0,42,0.00,,,0.00,204,Wunderground v.1.15,2013-07-26 20:24:00,
2013-07-26 13:29:00,90.0,63.1,29.90,NNW,336,0.0,9.0,41,0.00,,,0.00,255,Wunderground v.1.15,2013-07-26 20:29:00,
2013-07-26 13:34:00,89.5,63.4,29.90,NNW,336,0.0,5.0,42,0.00,,,0.00,237,Wunderground v.1.15,2013-07-26 20:34:00,
2013-07-26 13:39:00,88.8,63.4,29.90,NNW,336,0.0,8.0,43,0.00,,,0.00,272,Wunderground v.1.15,2013-07-26 20:39:00,
2013-07-26 13:45:00,88.5,63.1,29.89,NNW,336,0.0,1.0,43,0.00,,,0.00,287,Wunderground v.1.15,2013-07-26 20:45:00,
2013-07-26 13:50:00,88.2,62.9,29.89,NNW,336,0.0,0.0,43,0.00,,,0.00,246,Wunderground v.1.15,2013-07-26 20:50:00,
2013-07-26 13:55:00,88.0,62.7,29.89,NNW,336,0.0,1.0,43,0.00,,,0.00,214,Wunderground v.1.15,2013-07-26 20:55:00,
2013-07-26 14:00:00,87.8,62.5,29.89,NNW,336,0.0,0.0,43,0.00,,,0.00,167,Wunderground v.1.15,2013-07-26 21:00:00,
2013-07-26 14:05:00,87.3,62.7,29.90,WNW,299,10.0,18.0,44,0.00,,,0.00,127,Wunderground v.1.15,2013-07-26 21:05:00,
2013-07-26 14:10:00,84.1,61.7,29.91,NW,312,13.0,22.0,47,0.00,,,0.00,139,Wunderground v.1.15,2013-07-26 21:10:00,
2013-07-26 14:15:00,81.1,60.1,29.90,NW,320,13.0,23.0,49,0.00,,,0.00,156,Wunderground v.1.15,2013-07-26 21:15:00,
2013-07-26 14:20:00,79.2,60.6,29.91,WNW,303,5.0,13.0,53,0.00,,,0.00,139,Wunderground v.1.15,2013-07-26 21:20:00,
2013-07-26 14:25:00,78.3,60.3,29.91,WNW,288,18.0,18.0,54,0.00,,,0.00,116,Wunderground v.1.15,2013-07-26 21:25:00,
2013-07-26 14:30:00,77.5,63.0,29.91,NW,307,11.0,14.0,61,0.00,,,0.00,109,Wunderground v.1.15,2013-07-26 21:30:00,
2013-07-26 14:35:00,76.4,62.4,29.91,WNW,302,9.0,15.0,62,0.00,,,0.00,116,Wunderground v.1.15,2013-07-26 21:35:00,
2013-07-26 14:40:00,75.7,61.8,29.91,WNW,301,3.0,8.0,62,0.00,,,0.00,123,Wunderground v.1.15,2013-07-26 21:40:00,
2013-07-26 14:45:00,75.6,62.1,29.90,NW,307,5.0,13.0,63,0.00,,,0.00,130,Wunderground v.1.15,2013-07-26 21:45:00,
2013-07-26 14:50:00,75.4,62.8,29.90,NW,314,3.0,7.0,65,0.00,,,0.00,156,Wunderground v.1.15,2013-07-26 21:50:00,
2013-07-26 14:55:00,75.3,63.2,29.90,NW,316,4.0,11.0,66,0.00,,,0.00,179,Wunderground v.1.15,2013-07-26 21:55:00,
2013-07-26 15:00:00,75.3,63.6,29.90,NW,310,4.0,5.0,67,0.00,,,0.00,199,Wunderground v.1.15,2013-07-26 22:00:00,
2013-07-26 15:06:00,75.4,64.9,29.91,WNW,291,3.0,10.0,70,0.00,,,0.00,186,Wunderground v.1.15,2013-07-26 22:06:00,
2013-07-26 15:11:00,75.4,63.7,29.90,WNW,301,4.0,8.0,67,0.00,,,0.00,190,Wunderground v.1.15,2013-07-26 22:11:00,
2013-07-26 15:16:00,75.6,63.9,29.91,WNW,283,6.0,14.0,67,0.00,,,0.00,183,Wunderground v.1.15,2013-07-26 22:16:00,
2013-07-26 15:21:00,75.8,64.9,29.92,West,261,12.0,16.0,69,0.00,,,0.00,141,Wunderground v.1.15,2013-07-26 22:21:00,
2013-07-26 15:26:00,75.6,64.3,29.91,WNW,297,9.0,16.0,68,0.00,,,0.00,134,Wunderground v.1.15,2013-07-26 22:26:00,
2013-07-26 15:31:00,75.1,62.5,29.92,West,268,6.0,20.0,65,0.00,,,0.00,98,Wunderground v.1.15,2013-07-26 22:31:00,
2013-07-26 15:36:00,74.2,62.1,29.91,WSW,254,14.0,20.0,66,0.00,,,0.00,79,Wunderground v.1.15,2013-07-26 22:36:00,
2013-07-26 15:41:00,73.5,62.3,29.90,West,261,14.0,19.0,68,0.00,,,0.00,72,Wunderground v.1.15,2013-07-26 22:41:00,
2013-07-26 15:46:00,72.5,63.4,29.90,West,272,9.0,19.0,73,0.28,,,0.02,63,Wunderground v.1.15,2013-07-26 22:46:00,
2013-07-26 15:51:00,71.4,63.4,29.91,West,272,14.0,14.0,76,0.19,,,0.03,63,Wunderground v.1.15,2013-07-26 22:51:00,
2013-07-26 15:56:00,70.4,63.2,29.91,West,261,9.0,14.0,78,0.09,,,0.04,67,Wunderground v.1.15,2013-07-26 22:56:00,
2013-07-26 16:01:00,69.9,63.4,29.91,WSW,249,11.0,11.0,80,0.09,,,0.05,69,Wunderground v.1.15,2013-07-26 23:01:00,
2013-07-26 16:06:00,69.4,63.3,29.91,WSW,247,5.0,12.0,81,0.18,,,0.06,65,Wunderground v.1.15,2013-07-26 23:06:00,
2013-07-26 16:12:00,69.2,63.1,29.91,WSW,247,3.0,5.0,81,0.07,,,0.06,63,Wunderground v.1.15,2013-07-26 23:12:00,
2013-07-26 16:17:00,69.1,63.0,29.91,WSW,255,3.0,10.0,81,0.05,,,0.06,60,Wunderground v.1.15,2013-07-26 23:17:00,
2013-07-26 16:22:00,69.1,63.0,29.91,WSW,254,0.0,4.0,81,0.00,,,0.06,60,Wunderground v.1.15,2013-07-26 23:22:00,
2013-07-26 16:27:00,69.2,63.1,29.92,WSW,254,0.0,4.0,81,0.00,,,0.06,54,Wunderground v.1.15,2013-07-26 23:27:00,
2013-07-26 16:32:00,69.3,63.6,29.93,WSW,255,0.0,7.0,82,0.00,,,0.06,51,Wunderground v.1.15,2013-07-26 23:32:00,
2013-07-26 16:37:00,69.3,63.2,29.93,WSW,255,0.0,7.0,81,0.00,,,0.06,47,Wunderground v.1.15,2013-07-26 23:37:00,
2013-07-26 16:42:00,69.5,63.4,29.93,NE,34,0.0,2.0,81,0.00,,,0.06,46,Wunderground v.1.15,2013-07-26 23:42:00,
2013-07-26 16:47:00,69.8,63.7,29.94,NE,34,0.0,3.0,81,0.00,,,0.06,40,Wunderground v.1.15,2013-07-26 23:47:00,
2013-07-26 16:53:00,70.1,63.6,29.93,NE,34,0.0,0.0,80,0.00,,,0.06,35,Wunderground v.1.15,2013-07-26 23:53:00,
2013-07-26 16:58:00,70.5,64.7,29.94,NE,34,0.0,0.0,82,0.00,,,0.06,32,Wunderground v.1.15,2013-07-26 23:58:00,
2013-07-26 17:04:00,70.6,64.5,29.94,NE,34,0.0,0.0,81,0.00,,,0.06,28,Wunderground v.1.15,2013-07-27 00:04:00,
2013-07-26 17:09:00,70.7,64.6,29.93,NE,34,0.0,0.0,81,0.00,,,0.06,25,Wunderground v.1.15,2013-07-27 00:09:00,
2013-07-26 17:14:00,70.7,64.2,29.93,NE,34,0.0,0.0,80,0.00,,,0.06,23,Wunderground v.1.15,2013-07-27 00:14:00,
2013-07-26 17:19:00,70.8,64.3,29.93,NE,34,0.0,0.0,80,0.00,,,0.06,21,Wunderground v.1.15,2013-07-27 00:19:00,
2013-07-26 17:24:00,70.9,64.8,29.93,NE,34,0.0,0.0,81,0.00,,,0.06,18,Wunderground v.1.15,2013-07-27 00:24:00,
2013-07-26 17:29:00,71.0,64.9,29.93,NE,34,0.0,0.0,81,0.00,,,0.06,16,Wunderground v.1.15,2013-07-27 00:29:00,
2013-07-26 17:34:00,71.1,65.0,29.93,NE,34,0.0,0.0,81,0.00,,,0.06,14,Wunderground v.1.15,2013-07-27 00:34:00,
2013-07-26 17:39:00,71.2,65.1,29.93,NE,34,0.0,0.0,81,0.00,,,0.06,14,Wunderground v.1.15,2013-07-27 00:39:00,
2013-07-26 17:44:00,71.3,65.5,29.93,NE,34,0.0,0.0,82,0.00,,,0.06,12,Wunderground v.1.15,2013-07-27 00:44:00,
2013-07-26 17:49:00,71.3,65.5,29.93,NE,34,0.0,0.0,82,0.00,,,0.06,11,Wunderground v.1.15,2013-07-27 00:49:00,
2013-07-26 17:54:00,71.3,65.5,29.93,NE,34,0.0,0.0,82,0.00,,,0.06,11,Wunderground v.1.15,2013-07-27 00:54:00,
2013-07-26 17:59:00,71.4,66.0,29.92,NE,34,0.0,0.0,83,0.00,,,0.06,11,Wunderground v.1.15,2013-07-27 00:59:00,
2013-07-26 18:04:00,71.4,66.0,29.92,NE,34,0.0,0.0,83,0.00,,,0.06,11,Wunderground v.1.15,2013-07-27 01:04:00,
2013-07-26 18:09:00,71.5,66.1,29.92,NE,34,0.0,0.0,83,0.00,,,0.06,11,Wunderground v.1.15,2013-07-27 01:09:00,
2013-07-26 18:14:00,71.5,66.1,29.92,NE,34,0.0,0.0,83,0.00,,,0.06,12,Wunderground v.1.15,2013-07-27 01:14:00,
2013-07-26 18:19:00,71.5,66.4,29.92,NE,34,0.0,0.0,84,0.00,,,0.06,14,Wunderground v.1.15,2013-07-27 01:19:00,
2013-07-26 18:24:00,71.5,66.4,29.92,NE,34,0.0,0.0,84,0.00,,,0.06,18,Wunderground v.1.15,2013-07-27 01:24:00,
2013-07-26 18:29:00,71.5,66.4,29.91,NE,34,0.0,0.0,84,0.00,,,0.06,21,Wunderground v.1.15,2013-07-27 01:29:00,
2013-07-26 18:34:00,71.5,66.8,29.91,NE,34,0.0,0.0,85,0.00,,,0.07,25,Wunderground v.1.15,2013-07-27 01:34:00,
2013-07-26 18:39:00,71.6,66.8,29.91,NE,34,0.0,0.0,85,0.00,,,0.07,26,Wunderground v.1.15,2013-07-27 01:39:00,
2013-07-26 18:44:00,71.5,66.8,29.91,NE,34,0.0,0.0,85,0.00,,,0.07,23,Wunderground v.1.15,2013-07-27 01:44:00,
2013-07-26 18:49:00,71.5,66.8,29.91,NE,34,0.0,0.0,85,0.00,,,0.07,21,Wunderground v.1.15,2013-07-27 01:49:00,
2013-07-26 18:54:00,71.5,67.1,29.91,NE,34,0.0,0.0,86,0.00,,,0.07,16,Wunderground v.1.15,2013-07-27 01:54:00,
2013-07-26 18:59:00,71.5,67.1,29.92,NE,34,0.0,0.0,86,0.00,,,0.07,11,Wunderground v.1.15,2013-07-27 01:59:00,
2013-07-26 19:04:00,71.3,66.9,29.92,NE,34,0.0,0.0,86,0.00,,,0.07,7,Wunderground v.1.15,2013-07-27 02:04:00,
2013-07-26 19:09:00,71.3,66.9,29.92,NE,34,0.0,0.0,86,0.00,,,0.07,0,Wunderground v.1.15,2013-07-27 02:09:00,
2013-07-26 19:14:00,71.3,66.9,29.91,NE,34,0.0,0.0,86,0.00,,,0.07,0,Wunderground v.1.15,2013-07-27 02:14:00,
2013-07-26 19:19:00,71.3,66.9,29.92,NE,34,0.0,0.0,86,0.00,,,0.07,0,Wunderground v.1.15,2013-07-27 02:19:00,
2013-07-26 19:24:00,71.3,66.9,29.92,NE,34,0.0,0.0,86,0.00,,,0.07,0,Wunderground v.1.15,2013-07-27 02:24:00,
2013-07-26 19:29:00,71.3,66.9,29.92,NE,34,0.0,0.0,86,0.00,,,0.07,0,Wunderground v.1.15,2013-07-27 02:29:00,
2013-07-26 19:34:00,71.3,67.2,29.92,NE,34,0.0,0.0,87,0.00,,,0.07,0,Wunderground v.1.15,2013-07-27 02:34:00,
2013-07-26 19:39:00,71.3,67.2,29.92,NE,34,0.0,0.0,87,0.00,,,0.07,0,Wunderground v.1.15,2013-07-27 02:39:00,
2013-07-26 19:44:00,71.3,67.2,29.92,NE,34,0.0,0.0,87,0.00,,,0.07,0,Wunderground v.1.15,2013-07-27 02:44:00,
2013-07-26 19:49:00,71.3,67.6,29.92,NE,34,0.0,0.0,88,0.00,,,0.07,0,Wunderground v.1.15,2013-07-27 02:49:00,
2013-07-26 19:54:00,71.3,67.6,29.92,NE,34,0.0,0.0,88,0.00,,,0.07,0,Wunderground v.1.15,2013-07-27 02:54:00,
2013-07-26 19:59:00,71.3,67.6,29.92,NE,34,0.0,0.0,88,0.00,,,0.07,0,Wunderground v.1.15,2013-07-27 02:59:00,
2013-07-26 20:04:00,71.3,67.6,29.93,NE,34,0.0,0.0,88,0.00,,,0.07,0,Wunderground v.1.15,2013-07-27 03:04:00,
2013-07-26 20:09:00,71.3,67.6,29.94,NE,34,0.0,0.0,88,0.00,,,0.07,0,Wunderground v.1.15,2013-07-27 03:09:00,
2013-07-26 20:14:00,71.3,67.6,29.94,NE,34,0.0,0.0,88,0.00,,,0.07,0,Wunderground v.1.15,2013-07-27 03:14:00,
2013-07-26 20:19:00,71.3,67.6,29.94,NE,34,0.0,0.0,88,0.00,,,0.07,0,Wunderground v.1.15,2013-07-27 03:19:00,
2013-07-26 20:24:00,71.3,67.6,29.94,NE,34,0.0,0.0,88,0.00,,,0.07,0,Wunderground v.1.15,2013-07-27 03:24:00,
2013-07-26 20:29:00,71.3,67.6,29.95,NE,34,0.0,1.0,88,0.00,,,0.07,0,Wunderground v.1.15,2013-07-27 03:29:00,
2013-07-26 20:34:00,71.3,67.9,29.95,NE,34,0.0,0.0,89,0.00,,,0.07,0,Wunderground v.1.15,2013-07-27 03:34:00,
2013-07-26 20:39:00,71.3,67.9,29.96,NE,34,0.0,2.0,89,0.00,,,0.07,0,Wunderground v.1.15,2013-07-27 03:39:00,
2013-07-26 20:44:00,71.3,67.9,29.96,NE,34,4.0,4.0,89,0.00,,,0.07,0,Wunderground v.1.15,2013-07-27 03:44:00,
2013-07-26 20:49:00,71.2,67.8,29.96,NE,34,0.0,4.0,89,0.00,,,0.07,0,Wunderground v.1.15,2013-07-27 03:49:00,
2013-07-26 20:54:00,71.0,67.3,29.96,NE,34,0.0,0.0,88,0.00,,,0.07,0,Wunderground v.1.15,2013-07-27 03:54:00,
2013-07-26 21:00:00,70.9,67.2,29.97,NE,34,0.0,0.0,88,0.00,,,0.07,0,Wunderground v.1.15,2013-07-27 04:00:00,
2013-07-26 21:01:00,70.9,67.2,29.97,NE,34,0.0,0.0,88,0.00,,,0.07,0,Wunderground v.1.15,2013-07-27 04:01:00,
2013-07-26 21:02:00,70.9,67.2,29.97,NE,34,0.0,1.0,88,0.00,,,0.07,0,Wunderground v.1.15,2013-07-27 04:02:00,
2013-07-26 21:07:00,70.8,67.1,29.96,NE,34,0.0,1.0,88,0.00,,,0.07,0,Wunderground v.1.15,2013-07-27 04:07:00,
2013-07-26 21:12:00,70.8,67.1,29.97,NE,34,0.0,0.0,88,0.00,,,0.07,0,Wunderground v.1.15,2013-07-27 04:12:00,
2013-07-26 21:17:00,70.7,67.0,29.97,NE,34,0.0,1.0,88,0.00,,,0.07,0,Wunderground v.1.15,2013-07-27 04:17:00,
2013-07-26 21:22:00,70.7,66.6,29.97,NE,34,0.0,0.0,87,0.00,,,0.07,0,Wunderground v.1.15,2013-07-27 04:22:00,
2013-07-26 21:27:00,70.6,66.5,29.97,NE,34,0.0,0.0,87,0.00,,,0.07,0,Wunderground v.1.15,2013-07-27 04:27:00,
2013-07-26 21:32:00,70.7,66.6,29.97,NE,34,0.0,0.0,87,0.00,,,0.07,0,Wunderground v.1.15,2013-07-27 04:32:00,
2013-07-26 21:37:00,70.6,66.5,29.97,NE,34,0.0,0.0,87,0.00,,,0.07,0,Wunderground v.1.15,2013-07-27 04:37:00,
2013-07-26 21:42:00,70.6,66.5,29.97,NE,34,0.0,0.0,87,0.00,,,0.07,0,Wunderground v.1.15,2013-07-27 04:42:00,
2013-07-26 21:47:00,70.6,66.5,29.96,NE,34,0.0,0.0,87,0.00,,,0.07,0,Wunderground v.1.15,2013-07-27 04:47:00,
2013-07-26 21:52:00,70.5,66.4,29.96,NE,34,0.0,0.0,87,0.00,,,0.07,0,Wunderground v.1.15,2013-07-27 04:52:00,
2013-07-26 21:57:00,70.5,66.4,29.96,NE,34,0.0,0.0,87,0.00,,,0.07,0,Wunderground v.1.15,2013-07-27 04:57:00,
2013-07-26 22:02:00,70.4,66.3,29.96,NE,34,0.0,0.0,87,0.00,,,0.07,0,Wunderground v.1.15,2013-07-27 05:02:00,
2013-07-26 22:07:00,70.4,66.3,29.96,NE,34,0.0,0.0,87,0.00,,,0.07,0,Wunderground v.1.15,2013-07-27 05:07:00,
2013-07-26 22:12:00,70.4,66.3,29.96,NE,34,0.0,1.0,87,0.00,,,0.07,0,Wunderground v.1.15,2013-07-27 05:12:00,
2013-07-26 22:17:00,70.4,66.3,29.96,NE,34,0.0,1.0,87,0.00,,,0.07,0,Wunderground v.1.15,2013-07-27 05:17:00,
2013-07-26 22:22:00,70.5,66.4,29.96,NE,34,0.0,0.0,87,0.00,,,0.07,0,Wunderground v.1.15,2013-07-27 05:22:00,
2013-07-26 22:27:00,70.6,66.5,29.96,NE,34,0.0,1.0,87,0.00,,,0.07,0,Wunderground v.1.15,2013-07-27 05:27:00,
2013-07-26 22:32:00,70.6,66.2,29.96,NE,34,0.0,0.0,86,0.00,,,0.07,0,Wunderground v.1.15,2013-07-27 05:32:00,
2013-07-26 22:37:00,70.6,66.2,29.95,NE,34,0.0,0.0,86,0.00,,,0.07,0,Wunderground v.1.15,2013-07-27 05:37:00,
2013-07-26 22:42:00,70.6,66.2,29.95,NE,34,0.0,1.0,86,0.00,,,0.07,0,Wunderground v.1.15,2013-07-27 05:42:00,
2013-07-26 22:47:00,70.6,66.2,29.95,NE,34,0.0,2.0,86,0.00,,,0.07,0,Wunderground v.1.15,2013-07-27 05:47:00,
2013-07-26 22:52:00,70.6,66.2,29.95,NE,34,0.0,0.0,86,0.00,,,0.07,0,Wunderground v.1.15,2013-07-27 05:52:00,
2013-07-26 22:57:00,70.6,65.9,29.95,NE,34,0.0,0.0,85,0.00,,,0.07,0,Wunderground v.1.15,2013-07-27 05:57:00,
2013-07-26 23:02:00,70.6,65.9,29.94,NE,34,0.0,0.0,85,0.00,,,0.07,0,Wunderground v.1.15,2013-07-27 06:02:00,
2013-07-26 23:07:00,70.5,65.8,29.94,NE,34,0.0,0.0,85,0.00,,,0.07,0,Wunderground v.1.15,2013-07-27 06:07:00,
2013-07-26 23:12:00,70.5,66.1,29.94,NE,34,0.0,0.0,86,0.00,,,0.07,0,Wunderground v.1.15,2013-07-27 06:12:00,
2013-07-26 23:17:00,70.4,66.0,29.94,NE,34,0.0,0.0,86,0.00,,,0.07,0,Wunderground v.1.15,2013-07-27 06:17:00,
2013-07-26 23:25:00,70.3,65.9,29.94,NE,34,0.0,0.0,86,0.00,,,0.07,0,Wunderground v.1.15,2013-07-27 06:25:00,
2013-07-26 23:30:00,70.2,65.8,29.94,NE,34,0.0,0.0,86,0.00,,,0.07,0,Wunderground v.1.15,2013-07-27 06:30:00,
2013-07-26 23:35:00,70.2,65.8,29.94,NE,34,0.0,0.0,86,0.00,,,0.07,0,Wunderground v.1.15,2013-07-27 06:35:00,
2013-07-26 23:40:00,70.1,65.7,29.93,NE,34,0.0,0.0,86,0.00,,,0.07,0,Wunderground v.1.15,2013-07-27 06:40:00,
2013-07-26 23:45:00,70.0,65.6,29.94,NE,34,0.0,0.0,86,0.00,,,0.07,0,Wunderground v.1.15,2013-07-27 06:45:00,
2013-07-26 23:50:00,70.0,65.6,29.93,NE,34,0.0,0.0,86,0.00,,,0.07,0,Wunderground v.1.15,2013-07-27 06:50:00,
2013-07-26 23:57:00,69.9,65.5,29.93,NE,34,0.0,0.0,86,0.00,,,0.07,0,Wunderground v.1.15,2013-07-27 06:57:00,